Location: Blandford
(50.8667°N, 2.1667°W)
Time: 18:16:38
(UTC+00:00)

Cosmos 1833 Rocket - Pass Details

Date: 09 April 2020
Orbit: 834 x 838 km, 71.0° (Epoch: 03 June)

Event Time Altitude Azimuth Distance (km) Brightness Sun altitude
Exits shadow 22:20:44 61° 221° (SW) 950 2.8 -26.6°
Maximum altitude 22:21:47 84° 298° (WNW) 850 2.6 -26.6°
Drops below altitude 10° 22:27:27 10° 29° (NNE) 2,461 5.5 -27.1°
Sets 22:29:54 0° 30° (NNE) 3,399 6.3 -27.3°
